#timestamp,LO_Frequency,Hit,StdDev 
1604800815.8,286046998.1,N
1604800835.6,286047000.6,N
1604800855.5,286047001.1,N
1604800875.3,286046998.3,N
1604800895.1,286046999.1,N
1604800915.9,286046998.2,N
1604800935.7,286047000.7,N
1604800955.5,286046998.5,N
1604800975.4,286047001.1,N
1604800995.2,286046998.2,N
1604801015.0,286046998.4,N
1604801015.9,286046998.4,N
1604801035.8,286046998.3,N
1604801055.6,286046998.9,N
1604801075.4,286046998.1,N
1604801095.3,286046999.3,N
1604801115.1,286046998.7,N
1604801135.8,286046998.4,N
1604801155.7,286046999.4,N
1604801175.5,286046999.5,N
1604801195.3,286046998.8,N
1604801215.2,286046999.6,N
1604801235.0,286046999.0,N
1604801235.9,286046999.0,N
1604801255.7,286046999.0,N
1604801275.6,286046999.0,N
1604801295.4,286046999.0,N
1604801315.2,286046998.5,N
1604801335.1,286046999.1,N
1604801336.0,286046999.1,N
1604801355.8,286046999.1,N
1604801375.6,286046998.8,N
1604801395.5,286046999.0,N
1604801415.3,286046999.1,N
1604801435.1,286046999.1,N
1604801455.9,286046998.3,N
1604801475.7,286046999.6,N
1604801495.5,286046996.7,Y
1604801515.4,286046998.8,P
1604801535.2,286046998.9,P
1604801555.0,286047000.5,P
1604801555.9,286047000.5,N
1604801575.8,286047001.1,N
1604801595.6,286046998.6,N
1604801615.4,286047000.4,N
1604801635.3,286046998.5,N
1604801655.1,286046998.3,N
1604801675.8,286046998.5,N
1604801695.7,286046998.4,N
1604801715.5,286046999.4,N
1604801735.3,286046999.5,N
1604801755.2,286046999.6,N
1604801775.0,286046999.1,N
1604801775.9,286046999.1,N
1604801795.7,286046998.9,N
1604801815.6,286047000.8,N
1604801835.4,286046999.5,N
1604801855.2,286046999.1,N
1604801875.1,286046999.0,N
1604801876.0,286046999.0,N
1604801895.8,286046996.5,Y
1604801915.6,286046998.2,P
1604801935.5,286046998.4,N
1604801955.3,286046998.3,P
1604801975.1,286046999.4,N
1604801995.9,286046998.9,N
1604802015.7,286046998.6,N
1604802035.5,286046998.1,Y
1604802055.4,286047000.4,P
1604802075.2,286047000.5,N
1604802095.0,286047001.2,N
1604802095.9,286047001.2,N
1604802115.8,286047001.1,N
1604802135.6,286047000.7,N
1604802155.4,286047000.5,N
1604802175.3,286047000.0,N
1604802195.1,286047002.4,Y
1604802215.8,286047001.2,P
1604802235.7,286047001.1,N
1604802255.5,286046998.3,P
1604802275.3,286046998.6,N
1604802295.2,286047001.2,N
1604802315.0,286046998.2,N
1604802315.9,286046998.2,N
1604802335.7,286046998.8,N
1604802355.6,286046998.4,N
1604802375.4,286046996.5,N
1604802395.2,286047000.6,N
1604802415.1,286047001.2,N
1604802416.0,286047001.2,N
1604802435.8,286046998.9,N
1604802455.6,286046999.0,N
1604802475.5,286046998.4,N
1604802495.3,286046998.5,N
1604802515.1,286047001.0,N
1604802535.9,286047001.0,N
1604802555.7,286047001.2,N
1604802575.5,286047001.2,N
1604802595.4,286046998.3,N
1604802615.2,286046998.3,N
1604802635.0,286046998.6,N
1604802635.9,286046998.6,N
1604802655.8,286047000.8,N
1604802675.6,286046998.3,N
1604802695.4,286046998.3,N
1604802715.3,286046998.4,N
1604802735.1,286047001.2,N
1604802755.8,286047000.6,N
1604802775.7,286046998.5,N
1604802795.5,286046998.1,N
1604802815.3,286047000.5,N
1604802835.2,286047000.5,N
1604802855.0,286047002.3,N
1604802855.9,286047002.3,N
1604802875.7,286047002.2,N
1604802895.6,286047002.0,N
1604802915.4,286047002.4,N
1604802935.2,286046999.9,N
1604802955.1,286047002.3,N
1604802956.0,286047002.3,N
1604802975.8,286047002.4,N
1604802995.6,286047002.2,N
1604803015.5,286047002.7,N
1604803035.3,286047002.2,N
1604803055.1,286046999.9,N
1604803075.9,286047001.5,N
1604803095.7,286047002.3,N
1604803115.5,286047001.8,N
1604803135.4,286047004.3,N
1604803155.2,286047001.7,N
1604803175.0,286047001.6,N
1604803175.9,286047001.6,N
1604803195.8,286047004.2,N
1604803215.6,286047003.7,N
1604803235.4,286047004.2,N
1604803255.3,286047003.0,N
1604803275.1,286047004.1,N
1604803295.8,286047003.6,N
1604803315.7,286047003.0,N
1604803335.5,286047005.8,Y
1604803355.3,286047002.4,P
1604803375.2,286047000.2,N
1604803395.0,286047000.2,N
1604803395.9,286047000.2,N
1604803415.7,286047000.5,N
1604803435.6,286047000.6,N
1604803455.4,286047000.3,N
1604803475.2,286047002.3,N
1604803495.1,286046999.9,N
1604803496.0,286046999.9,N
1604803515.8,286046999.7,N
1604803535.6,286047000.1,N
1604803555.5,286046999.7,N
1604803575.3,286047000.4,N
1604803595.1,286047000.1,N
1604803615.9,286047002.7,Y
1604803635.7,286047002.0,P
1604803655.5,286047001.9,N
1604803675.4,286047001.6,N
1604803695.2,286047000.2,N
1604803715.0,286047000.3,N
1604803746.0,286047000.3,E
1604803755.9,286047000.3,N
1604803775.7,286047000.1,P
1604803795.6,286047000.2,N
1604803815.4,286047000.2,N
1604803835.2,286047000.4,Y
1604803855.1,286046999.9,P
1604803856.0,286046999.9,N
1604803875.8,286047000.0,N
1604803895.6,286047002.7,Y
1604803915.5,286047002.2,P
1604803935.3,286047000.0,N
1604803955.1,286047002.7,N
1604803975.9,286047001.9,N
1604803995.7,286047002.0,N
1604804015.5,286047002.4,N
1604804035.4,286047002.3,N
1604804055.2,286047000.1,N
1604804075.0,286047000.0,N
1604804075.9,286047000.0,N
1604804095.8,286047000.9,N
1604804115.6,286047000.3,N
1604804135.4,286047001.1,N
1604804155.3,286047000.9,N
1604804175.1,286047000.4,N
1604804195.8,286047002.6,N
1604804215.7,286047000.3,N
1604804235.5,286047000.0,N
1604804255.3,286047000.6,N
1604804275.2,286047001.0,N
1604804295.9,286047000.7,N
1604804315.7,286047000.3,N
1604804335.6,286047000.6,N
1604804355.4,286046999.9,N
1604804375.2,286047000.8,N
1604804395.1,286047001.1,N
1604804396.0,286047001.1,N
